Home   Weather   Luckenwalde   Past weeks

Flag for Germany Past Weather in Luckenwalde, Brandenburg, Germany — Yesterday and Last 2 Weeks

Now
23 °F

Passing clouds.


Feels Like: 23 °F
Forecast: 18 / 33 °F
Wind: No wind

Location: Holzdorf

Current Time: Jan 20, 2017 at 7:20:23 pm

Latest Report: Jan 20, 2017 at 6:20 pm


Visibility: 4 mi

Pressure: 30.57 "Hg

Humidity: 93%

Dew Point: 21 °F

Location of LuckenwaldeLocation

Past Weather in Luckenwalde — Graph

°F

Luckenwalde Temperature Yesterday

Maximum temperature yesterday: 23 °F (at 12:20 am)
Minimum temperature yesterday: 18 °F (at 5:20 pm)
Average temperature yesterday: 20 °F

High & Low Weather Summary for the Past Weeks

 TemperatureHumidityPressure
High39 °F (Jan 12, 3:20 am)100% (Jan 8, 3:20 am)30.77 "Hg (Jan 8, 3:20 am)
Low5 °F (Jan 6, 11:20 pm)56% (Jan 20, 2:20 pm)29.03 "Hg (Jan 13, 6:20 am)
Average27 °F88%30.18 "Hg
* Reported Jan 5 5:20 pm — Jan 20 5:20 pm, Luckenwalde, Weather by CustomWeather, © 2017

Note: Actual official high and low records may vary slightly from our data, if they occured in-between our weather recording intervals... More about our weather records

Advertising

Luckenwalde Weather History for the Previous 24 Hours

Scroll right to see more
 ConditionsComfort  
Time TempWeatherWind HumidityBarometerVisibility
5:20 pm
Fri, Jan 20
25 °FPassing clouds.No wind93%30.57 "Hg4 mi
5:12 pm25 °FPassing clouds.No wind93%30.57 "Hg4 mi
4:20 pm28 °FPassing clouds.2 mph80%30.57 "Hg6 mi
3:20 pm34 °FPassing clouds.5 mph60%30.57 "HgN/A
2:20 pm34 °FPassing clouds.5 mph56%30.57 "HgN/A
1:20 pm32 °FPassing clouds.3 mph64%30.57 "Hg6 mi
12:20 pm32 °FScattered clouds.5 mph69%30.60 "Hg5 mi
11:20 am28 °FBroken clouds.3 mph80%30.60 "Hg5 mi
10:20 am27 °FPartly sunny.3 mph86%30.60 "Hg4 mi
9:20 am25 °FIce fog.3 mph86%30.60 "Hg3 mi
8:20 am23 °FIce fog.2 mph93%30.60 "Hg3 mi
7:42 am23 °FIce fog.3 mph93%30.60 "Hg3 mi
7:20 am23 °FPassing clouds.3 mph86%30.60 "Hg4 mi
6:20 am23 °FPassing clouds.3 mph86%30.60 "Hg4 mi
5:20 am23 °FPassing clouds.3 mph86%30.60 "Hg4 mi
4:20 am21 °FPassing clouds.2 mph93%30.63 "Hg4 mi
3:20 am19 °FPassing clouds.1 mph93%30.63 "Hg4 mi
2:20 am21 °FPassing clouds.3 mph86%30.63 "Hg4 mi
1:20 am21 °FPassing clouds.3 mph86%30.63 "Hg4 mi
12:20 am21 °FPassing clouds.3 mph86%30.63 "Hg4 mi
11:20 pm
Thu, Jan 19
19 °FPassing clouds.2 mph93%30.66 "Hg4 mi
10:20 pm19 °FPassing clouds.3 mph93%30.66 "Hg4 mi
9:45 pm19 °FPassing clouds.3 mph93%30.66 "Hg4 mi
9:20 pm19 °FPassing clouds.2 mph86%30.66 "Hg4 mi
8:20 pm19 °FSnow flurries. Passing clouds.1 mph86%30.66 "Hg4 mi
7:20 pm19 °FPassing clouds.5 mph86%30.66 "Hg4 mi
Weather by CustomWeather, © 2017

See weather overviewHow to use our weather pages